STARLINK-11419, 62883

Orbit data source: Space-Track

STARLINK-11419, 62883 is a payload satellite owned by SpaceX/Seattle (US) in LEO that was launched on Tue, 04 Feb 2025 UTC via an FALCON 9 launch vehicle from the Air Force Eastern Test Range (AFETR). Payload-class satellites include a variety of spacecraft equipped with specific instruments for various scientific and technological missions. These include communications satellites like Starlink; space stations such as the ISS; scientific satellites like the Hubble; Earth observation satellites from companies like Planet Labs, Umbra, and HawkEye 360; GPS; miniature CubeSats for education and research; and military/defense satellites.

Loading next visibility...
Identifier
62883, 2025-024E
Orbit
LEO
Country
Flag of USUS
Related business
Manufacturer
SpaceX/Seattle
Mission
Operational Commercial Communications
Bus & Motor
STARLINK V2MD, Unknown motor
Mass
960 kg wet, ~910 kg dry
Launch date (UTC)
2025-02-04 (9 months ago)
Launch vehicle
FALCON 9
Launch site
Air Force Eastern Test Range (AFETR)
Object type
Payload
Rocket body
Debris
Shape & HBR
Box + 2 Pan, 18.1 m
Radar Cross Section
36.964 m², Large (>1 m²)

Expand to show TLE details & history
Last TLE update: 15 hours ago

TLE from 15 hours ago
0 STARLINK-11419
1 62883U 25024E   25310.70071242  .00364945  00000-0  27014-2 0  9991
2 62883  42.9969 202.7882 0002524 164.1992 195.8955 15.71043350 44124
Epoch: 2025-11-06T16:49Z
TLE epoch observation values (Epoch: 2025-11-06T16:49:01.553Z)
Latitude
0.00001°
Longitude
-95.62352°
Altitude
357.319 km
Speed
7.696 km/s
True Right ascension
13h 31m 09s
True Declination
0° 00' 00"
Sunlit
Object was in daylight at epoch
Visualization orbit readout
Latitude
Unknown
Longitude
Unknown
Altitude
Unknown
Speed
Unknown
Apparent Right ascension
Unknown
Apparent Declination
Unknown
Sunlit
N/A
Visualization observer readout
Local Sidereal Time
03:47:15
Azimuth
Unknown
Elevation
Unknown
Doppler factor
Unknown
Orbital elements
Apogee altitude
359.596 km
Perigee altitude
356.196 km
Semi-major axis
6,736.033 km
Eccentricity
0.00025
Inclination
42.9969°
RAAN
202.7882°
Arg. of periapsis
164.1992°
True anomaly
195.88758°
Mean anomaly
195.8955°
Eccentric anomaly
195.89154°
Mean motion
3.92588 °/min
Orbital period
91.7 mins
BSTAR
0.0027014
Loading maneuver chart data...
Computing Atmospheric mass density...
Loading historical data...
Loading historical data...
Loading historical data...
Loading historical data...
Loading historical data...
Loading historical data...
Loading historical data...

Documentation

Showing up to 5 results
|